TimeEST,TemperatureF,Dew PointF,Humidity,Sea Level PressureIn,VisibilityMPH,Wind Direction,Wind SpeedMPH,Gust SpeedMPH,PrecipitationIn,Events,Conditions,WindDirDegrees,DateUTC
12:53 AM,37.9,34.0,86,30.13,10.0,Calm,Calm,-,N/A,,Clear,0,2013-02-21 05:53:00
1:53 AM,37.0,33.1,86,30.12,10.0,Calm,Calm,-,N/A,,Clear,0,2013-02-21 06:53:00
2:53 AM,36.0,32.0,86,30.13,10.0,Calm,Calm,-,N/A,,Clear,0,2013-02-21 07:53:00
3:53 AM,37.9,26.1,62,30.12,10.0,Variable,3.5,-,N/A,,Clear,0,2013-02-21 08:53:00
4:53 AM,37.9,21.9,53,30.15,10.0,Variable,3.5,-,N/A,,Partly Cloudy,0,2013-02-21 09:53:00
5:53 AM,37.9,19.9,48,30.17,10.0,Variable,3.5,-,N/A,,Clear,0,2013-02-21 10:53:00
6:53 AM,37.0,19.9,50,30.18,10.0,Calm,Calm,-,N/A,,Clear,0,2013-02-21 11:53:00
7:53 AM,39.0,19.0,45,30.21,10.0,Calm,Calm,-,N/A,,Clear,0,2013-02-21 12:53:00
8:53 AM,43.0,18.0,37,30.23,10.0,NE,3.5,-,N/A,,Clear,40,2013-02-21 13:53:00
9:53 AM,46.0,16.0,30,30.23,10.0,ENE,6.9,-,N/A,,Clear,60,2013-02-21 14:53:00
10:53 AM,50.0,17.1,27,30.23,10.0,Variable,3.5,-,N/A,,Clear,0,2013-02-21 15:53:00
11:53 AM,53.1,19.9,27,30.21,10.0,Calm,Calm,-,N/A,,Clear,0,2013-02-21 16:53:00
12:53 PM,57.0,19.9,24,30.18,10.0,Calm,Calm,-,N/A,,Clear,0,2013-02-21 17:53:00
1:53 PM,60.1,21.0,22,30.13,10.0,Calm,Calm,-,N/A,,Clear,0,2013-02-21 18:53:00
2:53 PM,60.1,21.0,22,30.10,10.0,SSW,5.8,-,N/A,,Clear,210,2013-02-21 19:53:00
3:53 PM,62.1,18.0,18,30.12,10.0,Calm,Calm,-,N/A,,Clear,0,2013-02-21 20:53:00
4:53 PM,63.0,19.0,18,30.10,10.0,Calm,Calm,-,N/A,,Clear,0,2013-02-21 21:53:00
5:53 PM,60.1,24.1,25,30.11,10.0,Calm,Calm,-,N/A,,Clear,0,2013-02-21 22:53:00
6:53 PM,53.1,33.1,47,30.12,10.0,Calm,Calm,-,N/A,,Clear,0,2013-02-21 23:53:00
7:53 PM,50.0,33.1,52,30.12,10.0,Calm,Calm,-,N/A,,Clear,0,2013-02-22 00:53:00
8:53 PM,54.0,27.0,35,30.13,10.0,Variable,4.6,-,N/A,,Clear,0,2013-02-22 01:53:00
9:53 PM,54.0,27.0,35,30.17,10.0,Calm,Calm,-,N/A,,Clear,0,2013-02-22 02:53:00
10:53 PM,52.0,28.0,40,30.18,10.0,Calm,Calm,-,N/A,,Clear,0,2013-02-22 03:53:00
11:53 PM,52.0,28.9,41,30.20,10.0,Calm,Calm,-,N/A,,Clear,0,2013-02-22 04:53:00